EW5297 Weather Reports


Display with metric or nautical units.
time (UTC)temp
F
wind
direction
speed
MPH
gust
MPH
rain 1hr
in
rain 24hr
in
rain mn
in
humidity
%
barometer
mb
20260508030326 68 269 0.0 2.0 0.00 0.00 0.00 45
20260508024828 67 127 0.0 2.0 0.00 0.00 0.00 48
20260508023325 68 34 0.0 3.0 0.00 0.00 0.00 45
20260508021823 67 11 1.0 2.0 0.00 0.00 0.00 53
20260508020324 66 11 1.0 2.0 0.00 0.00 0.00 46
20260508014844 66 11 1.0 2.0 0.00 0.00 0.00 47
20260508013322 66 340 0.0 2.0 0.00 0.00 0.00 50
20260508011820 65 340 0.0 2.0 0.00 0.00 0.00 52
20260508010316 64 313 0.0 2.0 0.00 0.00 0.00 51
20260508004818 63 30 0.0 2.0 0.00 0.00 0.00 52
20260508003316 62 220 0.0 2.0 0.00 0.00 0.00 61
20260508001818 61 325 0.0 1.0 0.00 0.00 0.00 52
20260508000316 60 325 1.0 2.0 0.00 0.00 0.00 59
20260507233310 55 303 0.0 2.0 0.00 0.00 0.00 69
20260507231811 52 337 1.0 2.0 0.00 0.00 0.00 74
20260507230311 50 337 0.0 1.0 0.00 0.00 0.00 74
20260507224834 49 337 0.0 0.0 0.00 0.00 0.00 79
20260507223313 46 326 1.0 1.0 0.00 0.00 0.00 81
20260507221838 45 337 0.0 1.0 0.00 0.00 0.00 84
20260507220339 44 327 1.0 2.0 0.00 0.00 0.00 88
20260507214818 42 331 1.0 2.0 0.00 0.00 0.00 89
20260507211833 40 338 0.0 2.0 0.00 0.00 0.00 89
20260507210312 40 331 0.0 2.0 0.00 0.00 0.00 89
20260507204817 40 331 0.0 2.0 0.00 0.00 0.00 89
20260507203338 40 331 1.0 1.0 0.00 0.00 0.00 88
20260507201843 40 331 0.0 0.0 0.00 0.00 0.00 88
20260507200320 40 331 0.0 0.0 0.00 0.00 0.00 88
20260507194819 41 331 0.0 1.0 0.00 0.00 0.00 87
20260507193321 41 331 0.0 2.0 0.00 0.00 0.00 87
20260507191818 41 331 0.0 2.0 0.00 0.00 0.00 87
20260507190336 41 331 0.0 0.0 0.00 0.00 0.00 87
20260507184817 41 331 0.0 0.0 0.00 0.00 0.00 87
20260507183313 41 331 0.0 0.0 0.00 0.00 0.00 87
20260507181837 41 331 0.0 2.0 0.00 0.00 0.00 87
20260507180314 41 333 0.0 2.0 0.00 0.00 0.00 86
20260507174830 42 314 0.0 0.0 0.00 0.00 0.00 86
20260507173331 42 314 0.0 1.0 0.00 0.00 0.00 85
20260507171827 42 298 0.0 2.0 0.00 0.00 0.00 84
20260507170325 42 320 0.0 0.0 0.00 0.00 0.00 85
20260507164828 42 336 0.0 0.0 0.00 0.00 0.00 83
20260507163324 43 319 0.0 0.0 0.00 0.00 0.00 82
20260507161847 43 319 0.0 0.0 0.00 0.00 0.00 80
20260507160323 43 319 0.0 0.0 0.00 0.00 0.00 82
20260507154820 44 319 0.0 0.0 0.00 0.00 0.00 83
20260507153321 44 279 0.0 0.0 0.00 0.00 0.00 82
20260507151819 44 175 0.0 2.0 0.00 0.00 0.00 83
20260507150342 44 151 1.0 3.0 0.00 0.00 0.00 86
20260507144837 45 165 0.0 2.0 0.00 0.00 0.00 87
20260507143313 45 330 0.0 0.0 0.00 0.00 0.00 86
20260507141813 45 330 0.0 0.0 0.00 0.00 0.00 86
20260507140312 45 330 0.0 0.0 0.00 0.00 0.00 86
20260507134828 46 330 0.0 2.0 0.00 0.00 0.00 86
20260507133328 46 330 0.0 1.0 0.00 0.00 0.00 86
20260507131825 47 330 0.0 1.0 0.00 0.00 0.00 86
20260507130346 47 330 1.0 2.0 0.00 0.00 0.00 85
20260507124822 48 330 0.0 0.0 0.00 0.00 0.00 84
20260507123319 48 330 0.0 2.0 0.00 0.00 0.00 84
20260507121840 49 330 0.0 2.0 0.00 0.00 0.00 84
20260507120316 50 330 1.0 2.0 0.00 0.00 0.00 81
20260507114812 51 325 0.0 2.0 0.00 0.00 0.00 76
20260507113313 52 5 0.0 0.0 0.00 0.00 0.00 73
20260507111811 54 151 0.0 1.0 0.00 0.00 0.00 74
20260507110311 54 143 0.0 3.0 0.00 0.00 0.00 75
20260507104852 55 40 1.0 2.0 0.00 0.00 0.00 74
20260507103324 56 315 0.0 6.0 0.00 0.00 0.00 72
20260507101826 56 311 1.0 5.0 0.00 0.00 0.00 70
20260507100345 55 183 1.0 3.0 0.00 0.00 0.00 82
20260507094822 55 300 0.0 2.0 0.00 0.00 0.00 81
20260507093344 55 350 1.0 2.0 0.00 0.00 0.00 82
20260507091818 56 341 0.0 4.0 0.00 0.00 0.00 81
20260507090320 54 345 2.0 5.0 0.00 0.00 0.00 86
20260507084816 54 321 1.0 2.0 0.00 0.00 0.00 88
20260507083313 55 321 1.0 2.0 0.00 0.00 0.00 88
20260507081835 55 290 0.0 0.0 0.00 0.00 0.00 87
20260507080334 56 290 0.0 1.0 0.00 0.00 0.00 87
20260507074813 56 146 0.0 2.0 0.00 0.00 0.00 87
20260507073311 56 324 0.0 2.0 0.00 0.00 0.00 86
20260507071828 57 329 0.0 2.0 0.00 0.00 0.00 84
20260507070330 58 327 1.0 1.0 0.00 0.00 0.00 82
20260507064827 59 321 1.0 2.0 0.00 0.00 0.00 80
20260507063322 61 321 1.0 2.0 0.00 0.00 0.00 76
20260507061824 64 330 1.0 3.0 0.00 0.00 0.00 73
20260507060322 66 325 0.0 3.0 0.00 0.00 0.00 72
20260507054824 68 226 0.0 2.0 0.00 0.00 0.00 75
20260507053321 68 226 0.0 2.0 0.00 0.00 0.00 73
20260507051840 68 226 0.0 2.0 0.00 0.00 0.00 67
20260507050342 68 153 1.0 2.0 0.00 0.00 0.00 68
20260507044818 69 161 1.0 2.0 0.00 0.00 0.00 69
20260507043315 69 96 0.0 0.0 0.00 0.00 0.00 73
20260507041816 68 96 0.0 0.0 0.00 0.00 0.00 75
20260507040315 68 92 0.0 0.0 0.00 0.00 0.00 72
20260507034815 67 338 0.0 0.0 0.00 0.00 0.00 77
20260507033313 67 338 0.0 0.0 0.00 0.00 0.00 78
20260507031811 66 346 1.0 3.0 0.00 0.00 0.00 74